Dewpoint
27 26 26 27 28 30 33 33 33 38 40 40 39 43 44 43 46 47 49 51 53 53
24 25 25 26 28 31 33 31 29 34 38 39 39 40 42 44 45 47 48 50 51 52
23 24 25 26 27 28 31 30 29 32 36 38 37 37 39 41 43 45 46 48 49 50
23 25 25 26 27 27 29 28 28 31 35 36 35 36 38 39 42 44 46 47 48 47
23 24 25 26 26 27 27 27 28 30 33 34 34 34 36 37 40 42 43 46 49 48
22 23 24 24 25 25 26 26 28 29 31 32 33 33 34 35 37 41 42 44 48 48
22 23 23 24 25 26 26 26 27 28 29 30 33 32 33 34 36 39 42 44 47 48
23 23 24 24 25 26 26 26 27 28 28 29 31 32 34 36 37 38 41 43 46 50
22 23 24 24 25 25 25 26 26 27 27 28 31 34 37 38 39 39 40 42 44 50
22 23 24 24 24 25 25 25 26 27 27 28 32 35 37 39 39 39 40 42 44 45
22 22 23 24 24 25 25 25 26 26 27 29 32 37 39 39 39 39 41 42 44 47
21 21 21 23 25 26 26 26 26 26 28 30 33 37 38 39 38 39 40 42 45 46
21 21 22 24 25 27 27 26 27 27 30 32 35 38 39 41 39 39 38 39 42 44
20 22 24 25 26 28 28 27 28 29 31 34 36 36 40 40 39 38 37 39 40 42
Lifted_Index
12 12 13 13 13 13 13 13 13 13 13 13 12 11 9 7 6 5 4 4 3 3
13 13 14 14 14 14 14 13 13 13 13 13 13 12 10 8 6 5 5 4 3 3
13 13 14 14 14 14 14 14 14 14 13 13 13 12 11 9 7 6 5 4 4 3
13 13 14 14 14 14 14 14 14 14 13 13 12 12 11 10 8 7 5 4 4 3
13 13 13 13 13 13 13 13 13 13 13 13 12 12 12 10 9 7 6 4 4 3
12 13 13 13 13 13 13 13 13 13 13 13 13 12 12 11 9 7 6 4 4 3
13 13 13 13 13 14 14 14 14 13 13 13 13 12 12 11 10 8 6 4 3 3
13 13 13 13 14 14 14 14 14 14 13 13 13 12 12 11 9 8 6 4 3 2
14 14 14 14 14 14 14 14 14 14 13 13 13 12 11 10 9 7 5 4 2 2
14 14 14 14 13 13 14 13 13 13 12 12 11 10 9 9 8 6 5 4 3 2
13 13 13 13 13 13 13 13 12 12 11 10 9 8 8 8 7 6 5 4 3 3
13 13 13 12 12 13 12 12 11 11 10 9 8 7 7 7 6 5 4 4 3 3
13 12 12 12 12 12 12 12 11 10 9 8 7 8 8 7 6 5 4 3 3 3
12 12 12 12 12 12 12 11 10 9 8 8 8 8 8 7 6 5 4 3 3 3